Temperature
8 10 10 9 9 10 10 10 11 10 8 7 8 9 9 7 6 5 5 5 4 4 5 5 5 5 5 5 5 5 5 5 5 5 5 5 5 5 5 5 5 5 5 5
9 8 8 7 7 8 9 9 10 9 7 7 8 8 8 7 6 5 5 5 4 4 4 4 4 4 5 5 5 5 4 4 4 4 4 4 4 4 4 4 5 5 4 5
9 7 6 6 7 7 8 8 9 8 7 6 6 9 8 7 5 4 4 4 4 3 3 3 4 4 4 4 4 4 4 4 4 4 3 4 4 4 4 4 4 4 4 4
7 6 6 6 7 7 8 7 6 6 7 8 7 10 10 7 6 5 4 4 3 3 3 3 3 3 3 4 4 4 4 3 3 3 3 3 3 3 3 3 3 4 4 4
6 5 5 6 6 6 6 5 5 5 6 7 7 7 10 7 7 6 5 4 3 2 2 2 2 2 3 3 3 3 3 3 3 3 3 3 3 3 2 3 3 3 3 3
5 4 4 5 4 4 4 5 5 5 6 7 7 7 10 8 7 6 5 3 2 1 1 1 2 2 2 2 2 3 3 3 3 2 2 2 2 2 2 2 2 2 2 2
5 4 3 3 4 4 4 6 7 7 7 8 6 6 8 6 5 4 4 3 2 1 1 1 1 1 1 2 2 2 2 2 2 2 2 2 2 2 1 1 2 2 2 2
6 6 4 3 4 4 4 5 7 8 9 9 5 6 8 4 3 2 1 1 1 1 1 1 1 1 1 1 2 2 2 2 2 2 2 1 1 1 1 1 1 1 1 1
6 6 3 2 2 4 4 5 4 5 5 6 7 6 5 4 3 2 1 1 0 0 0 0 0 1 1 1 1 1 1 1 1 1 1 1 1 0 0 0 0 0 0 0
4 4 3 1 2 2 3 3 4 4 6 7 8 7 7 5 4 3 2 1 0 0 -0 -0 0 0 0 0 0 0 0 0 0 0 0 0 0 -0 -0 -0 -0 -0 -0 0
2 3 3 2 2 3 2 2 3 4 4 6 6 7 5 4 4 3 2 1 0 -0 -0 -0 -0 0 -0 -0 -0 -0 -0 -0 -0 -0 -0 -0 -0 -1 -1 -1 -1 -1 -1 -0
1 3 3 3 1 0 1 2 3 4 3 3 5 6 3 2 2 1 0 -0 -0 -1 -1 -1 -0 -0 -1 -1 -1 -1 -1 -1 -1 -1 -1 -1 -1 -1 -1 -1 -1 -1 -1 -1
0 1 3 4 1 -0 -0 0 0 1 2 3 4 5 2 0 0 -0 -0 -0 -0 -1 -1 -1 -1 -1 -1 -1 -1 -1 -1 -1 -1 -1 -2 -2 -2 -2 -2 -2 -2 -2 -2 -1
1 1 2 4 4 2 0 -1 -1 0 2 3 3 4 3 2 1 1 -0 -1 -1 -1 -1 -2 -2 -2 -2 -2 -2 -2 -2 -2 -2 -2 -2 -2 -2 -2 -2 -2 -2 -2 -2 -2
-0 1 0 1 0 -0 0 -0 -1 -1 1 2 3 2 2 2 1 0 -1 -1 -2 -2 -2 -2 -2 -2 -3 -3 -2 -2 -2 -2 -3 -3 -3 -3 -3 -3 -3 -3 -3 -3 -3 -3
-2 -0 -1 -1 -1 -1 -1 -1 -1 -1 -1 -0 0 0 1 -0 -1 -2 -2 -2 -2 -3 -3 -3 -3 -3 -3 -3 -3 -3 -3 -3 -3 -3 -3 -3 -3 -3 -3 -3 -4 -3 -3 -3
-2 -2 -1 1 -1 -2 -0 -1 -1 -2 -2 -1 -0 1 -1 -2 -2 -2 -2 -3 -3 -3 -3 -3 -3 -3 -3 -4 -4 -4 -4 -4 -4 -4 -4 -4 -4 -4 -4 -4 -4 -4 -4 -4
-3 -2 -1 -0 -1 -0 2 -2 -2 -2 -2 -3 -2 -2 -2 -2 -3 -3 -3 -3 -3 -3 -4 -4 -4 -4 -4 -4 -4 -4 -4 -4 -4 -4 -4 -4 -5 -5 -5 -5 -5 -5 -5 -5
-3 -2 -1 -1 -0 1 0 -2 -3 -3 -2 -3 -3 -3 -3 -4 -4 -3 -3 -3 -4 -4 -4 -4 -4 -4 -4 -5 -5 -5 -5 -5 -5 -5 -5 -5 -5 -5 -5 -5 -5 -5 -5 -5
-5 -3 -2 -2 -1 -0 1 -3 -5 -3 -1 -3 -4 -4 -4 -5 -1 -1 -3 -4 -4 -4 -4 -5 -5 -5 -5 -5 -5 -5 -5 -5 -5 -6 -6 -6 -6 -6 -6 -6 -6 -6 -6 -6
-4 -4 -3 -2 -2 -0 -2 -5 -4 -2 -1 -3 -5 -5 -5 -4 -3 -4 -4 -4 -5 -5 -5 -5 -5 -5 -5 -5 -6 -6 -6 -6 -6 -6 -6 -6 -7 -7 -7 -7 -7 -7 -7 -7
-3 -3 -4 -3 -2 -1 -4 -5 -3 -2 -3 -4 -5 -5 -5 -5 -5 -5 -5 -5 -5 -5 -5 -5 -6 -6 -6 -6 -6 -6 -6 -7 -7 -7 -7 -7 -7 -7 -7 -7 -7 -7 -7 -7
-4 -3 -3 -3 -2 -3 -5 -5 -4 -4 -5 -5 -5 -5 -5 -6 -6 -6 -6 -6 -6 -6 -6 -6 -6 -6 -6 -7 -7 -7 -7 -7 -7 -7 -7 -8 -8 -8 -8 -8 -8 -8 -8 -8
-5 -7 -5 -5 -4 -5 -5 -5 -5 -5 -5 -5 -5 -5 -6 -6 -6 -6 -6 -6 -6 -6 -6 -6 -7 -7 -7 -7 -7 -7 -8 -8 -8 -8 -8 -8 -8 -8 -8 -8 -9 -9 -9 -9
-4 -7 -6 -6 -5 -6 -5 -5 -5 -5 -5 -5 -5 -6 -6 -6 -6 -7 -7 -7 -7 -7 -7 -7 -7 -7 -7 -8 -8 -8 -8 -8 -8 -9 -9 -9 -9 -9 -9 -9 -9 -9 -9 -9
-6 -6 -5 -4 -4 -5 -4 -4 -5 -6 -6 -6 -6 -6 -6 -7 -7 -7 -7 -7 -7 -7 -7 -7 -8 -8 -8 -8 -8 -8 -9 -9 -9 -9 -9 -9 -9 -9 -10 -10 -9 -9 -10 -10
Wind_Speed
1 2 4 5 7 6 5 7 9 7 2 5 10 13 11 7 6 8 7 6 6 6 5 3 3 3 3 3 3 3 3 3 2 2 2 2 2 2 2 2 3 3 3 4
2 4 5 4 4 5 6 7 9 6 3 5 8 13 11 8 8 8 8 7 6 5 4 3 3 3 4 4 4 4 4 4 4 3 3 2 3 2 2 2 3 3 4 4
6 2 3 4 4 6 7 9 8 7 4 4 6 10 8 6 6 5 6 6 6 6 5 4 4 4 4 4 4 4 4 4 4 3 2 2 1 2 2 3 3 4 4 5
3 2 3 4 5 5 7 6 7 6 5 5 4 8 7 6 6 5 5 5 5 4 4 4 4 4 4 4 4 4 4 4 4 4 4 4 3 3 4 3 3 3 4 5
2 2 3 5 5 5 4 2 5 6 6 6 6 7 7 4 6 6 4 3 3 3 4 4 4 4 4 3 3 3 3 3 3 4 4 4 4 4 3 3 3 3 3 4
1 1 2 3 2 2 1 1 2 3 4 8 8 9 8 4 6 4 3 2 2 2 2 3 3 2 2 2 2 3 3 3 3 3 4 5 5 5 4 4 4 3 3 4
2 2 0 1 1 2 2 2 2 4 5 7 3 7 7 3 3 4 4 3 2 1 1 2 2 2 2 2 2 2 3 3 3 4 4 5 5 6 6 5 5 4 4 4
3 4 2 1 3 3 5 5 5 5 6 5 3 7 4 1 1 2 2 2 2 1 1 2 2 2 3 3 3 3 3 3 3 4 4 5 5 5 5 6 5 5 5 5
3 3 0 1 2 3 4 5 3 3 4 6 6 5 4 2 2 1 1 1 2 2 2 2 2 2 3 3 3 4 4 4 4 4 4 5 5 5 6 6 6 5 5 5
2 4 2 1 2 1 2 3 3 4 4 7 7 6 4 3 3 2 1 2 3 3 2 3 2 2 3 3 3 3 4 5 5 4 4 4 5 6 6 6 6 6 6 6
2 3 2 2 5 5 3 4 3 4 4 5 6 4 0 3 2 2 2 3 3 3 3 3 3 3 3 3 2 3 3 4 4 4 4 4 4 5 5 5 6 6 6 6
1 2 4 4 1 1 4 5 6 5 5 5 6 6 2 1 2 2 3 4 4 3 3 3 4 3 3 3 2 3 3 3 4 4 3 4 4 4 4 5 5 5 5 5
2 2 3 3 2 2 4 3 4 4 3 6 8 7 2 1 3 4 4 5 4 4 3 3 3 3 3 3 3 3 3 3 3 3 3 4 4 4 4 4 5 5 5 5
2 3 6 8 5 2 4 4 5 6 6 8 12 13 8 7 7 7 6 5 5 4 4 4 3 3 3 3 3 3 3 3 3 3 3 4 4 4 4 4 4 5 5 5
2 4 5 7 6 4 6 7 7 10 11 11 11 12 13 11 9 8 7 6 5 5 5 4 4 4 3 4 4 4 3 3 3 3 3 4 4 4 4 4 4 4 5 5
2 4 3 5 4 4 7 10 10 11 11 13 14 15 12 10 7 6 6 5 6 7 6 5 4 4 4 4 4 4 4 4 3 3 4 4 4 4 4 4 4 4 4 5
4 4 4 5 2 3 8 8 10 7 8 8 12 10 5 6 6 7 6 6 7 7 6 5 5 5 4 4 4 4 4 4 3 3 4 4 4 4 4 4 4 5 5 5
5 4 3 3 1 7 3 1 4 7 6 7 8 8 6 7 8 8 7 6 7 7 6 6 5 4 4 4 3 3 4 3 3 3 4 4 4 4 4 4 5 5 5 5
5 5 3 3 5 8 5 2 2 5 6 4 8 9 8 7 6 5 3 4 6 7 6 5 4 4 3 3 3 3 3 3 3 4 4 4 4 4 4 4 5 5 5 5
0 2 4 4 5 6 4 2 1 2 5 2 4 6 5 3 4 5 5 6 7 6 4 4 3 3 3 3 2 2 3 4 4 4 5 5 4 4 5 5 5 5 4 5
2 2 5 7 7 7 3 1 2 3 4 3 3 5 4 4 6 7 7 7 6 5 4 3 2 2 3 3 2 3 3 4 5 5 5 5 4 5 5 5 4 4 4 4
5 4 5 5 6 7 2 4 4 4 4 3 4 5 5 7 7 7 6 6 5 5 4 3 2 3 3 2 2 3 4 5 5 4 4 4 4 4 4 4 4 4 4 4
6 5 4 7 6 2 4 4 4 4 5 5 5 6 6 7 7 7 7 6 5 4 4 3 3 3 3 3 3 4 5 5 4 4 4 4 4 4 4 4 4 4 4 4
4 2 4 5 8 7 6 6 6 6 7 7 6 6 6 7 7 8 7 6 5 4 3 3 2 3 3 4 4 4 4 4 4 4 4 4 4 4 4 4 4 4 4 4
4 5 4 7 8 8 7 7 8 7 7 7 7 6 6 6 7 7 6 5 5 4 3 2 3 3 4 4 4 4 4 4 3 4 4 4 4 4 4 4 4 5 5 5
5 6 6 8 6 6 7 5 5 6 7 7 6 6 6 5 6 6 5 4 4 4 3 3 3 3 4 4 4 4 4 3 3 4 4 3 3 4 4 4 5 6 6 8
Wind_Direction
71 189 213 218 223 242 242 242 253 257 249 248 252 261 268 255 241 245 243 238 239 240 240 229 222 221 221 217 214 217 217 212 200 204 222 233 245 245 247 250 251 247 244 245
170 227 235 232 226 230 234 246 259 261 255 256 268 270 267 248 236 238 240 242 242 243 237 227 221 215 215 217 215 213 217 212 207 214 225 238 241 245 245 251 253 250 248 247
212 222 221 208 209 226 238 243 254 263 285 249 277 268 243 231 225 233 236 243 247 242 239 231 224 226 223 222 222 218 217 214 211 212 209 208 227 247 247 251 256 256 250 245
221 241 211 211 228 233 248 242 252 255 256 256 247 273 248 219 221 227 232 236 248 252 244 238 230 234 233 232 228 224 217 212 209 205 210 213 223 235 249 251 249 255 249 248
224 231 223 228 242 236 250 257 243 241 241 259 235 254 260 198 229 233 231 238 251 256 243 238 236 237 240 237 229 222 214 213 210 208 218 225 236 247 254 256 251 257 258 252
248 272 263 251 287 234 191 204 211 216 229 249 236 234 262 228 223 229 224 243 271 279 258 247 246 242 245 240 226 218 208 218 217 214 223 228 237 245 251 256 259 260 262 258
242 216 240 289 222 181 210 224 247 230 226 244 198 231 255 230 222 228 244 259 297 301 267 257 251 247 247 239 230 224 214 222 223 222 230 236 240 244 247 254 255 258 261 262
248 242 199 248 236 219 215 224 235 255 257 264 210 240 255 145 280 273 275 284 295 302 288 282 266 253 245 238 239 231 226 234 235 234 239 244 245 246 251 253 257 257 259 262
248 247 183 304 303 232 202 218 262 264 274 267 251 255 280 222 257 258 288 295 291 291 292 294 280 266 258 249 243 239 238 245 246 245 252 252 249 250 256 259 259 260 262 266
254 261 251 267 223 249 252 187 189 217 249 260 261 254 252 223 228 246 286 289 301 312 313 312 301 282 273 265 260 256 250 250 251 248 249 257 259 259 261 262 262 264 267 268
253 243 251 219 214 216 180 185 209 219 248 253 270 264 220 219 234 257 286 304 311 317 318 315 310 301 293 282 267 265 264 264 262 259 258 263 269 271 268 265 268 271 272 271
226 245 258 248 186 311 226 220 203 222 231 235 259 270 67 269 326 301 301 313 315 311 311 312 311 309 302 297 290 282 277 270 271 272 269 269 276 278 281 282 283 282 279 278
177 207 268 250 205 197 227 235 230 237 232 230 240 260 80 6 323 303 295 302 311 308 312 315 315 307 299 297 292 287 285 282 280 277 274 275 276 279 286 293 294 290 286 285
204 217 238 261 287 221 232 227 210 207 226 240 241 261 280 290 301 307 304 300 303 302 304 308 308 306 306 303 298 297 296 291 286 280 275 277 283 285 287 290 291 293 293 289
200 239 244 264 274 266 261 251 222 219 232 245 261 263 276 289 295 299 299 299 298 300 301 298 297 302 307 309 309 309 305 301 291 279 278 284 288 292 293 292 294 298 295 290
220 234 244 269 266 262 273 263 243 240 245 249 265 274 283 295 301 296 294 291 289 291 292 291 294 297 299 300 303 304 305 301 289 279 281 288 294 300 299 297 300 298 294 291
201 202 226 266 292 291 272 251 229 225 226 229 248 265 295 303 293 292 296 294 290 293 290 287 284 285 289 290 291 292 298 299 287 284 288 292 297 300 300 299 299 296 295 294
197 197 223 267 281 251 269 29 231 233 245 239 261 283 291 290 297 295 288 288 293 297 294 288 284 286 289 290 291 295 298 296 291 289 291 296 297 298 300 297 296 299 299 295
223 204 212 226 254 271 282 275 219 227 265 252 257 279 298 311 305 294 309 305 294 295 293 285 283 283 286 287 293 301 301 301 296 293 295 296 294 294 295 294 296 301 300 298
193 223 221 222 243 257 298 345 313 218 267 267 246 273 298 316 293 310 342 327 312 309 307 297 298 298 290 293 297 295 297 299 297 299 298 297 293 290 290 293 297 297 295 295
176 202 220 231 243 263 328 26 147 211 293 328 258 265 266 258 280 306 316 315 312 310 311 307 302 300 297 298 294 289 295 297 302 301 298 296 293 291 292 297 296 297 297 299
192 194 206 211 232 259 120 140 202 269 320 296 278 268 268 279 293 300 304 306 310 314 314 307 304 305 307 300 288 291 296 303 306 301 297 296 296 298 299 299 301 301 302 302
216 216 211 207 230 305 168 217 261 299 287 286 284 281 280 285 291 298 300 300 302 304 305 303 297 303 310 305 291 287 297 305 302 298 297 299 301 299 299 295 296 298 297 295
233 227 226 247 262 272 260 264 276 278 278 286 286 285 281 281 288 294 297 298 301 302 302 299 291 294 302 308 305 296 299 299 292 292 296 298 298 298 297 292 289 289 289 290
232 187 226 253 273 293 271 263 271 279 284 289 291 284 278 278 285 289 291 293 293 296 296 286 278 281 291 301 304 305 302 295 287 289 293 295 294 294 296 294 287 283 279 280
205 203 220 251 257 256 277 290 286 282 283 283 287 293 291 279 280 287 288 288 287 283 283 284 285 286 290 295 298 302 298 287 281 286 291 291 293 294 294 296 298 290 284 290
Height
1505 1505 1503 1504 1505 1503 1502 1501 1499 1501 1508 1508 1503 1500 1499 1501 1502 1501 1501 1501 1500 1500 1501 1502 1502 1502 1503 1503 1504 1504 1505 1505 1506 1507 1507 1508 1508 1509 1510 1510 1511 1512 1512 1513
1504 1505 1507 1508 1508 1506 1504 1503 1500 1502 1508 1507 1501 1497 1496 1497 1497 1497 1497 1497 1497 1497 1498 1498 1498 1499 1499 1499 1500 1501 1501 1502 1503 1503 1504 1505 1506 1506 1507 1507 1507 1508 1508 1509
1500 1506 1508 1508 1507 1506 1504 1502 1501 1502 1506 1507 1504 1489 1489 1492 1494 1494 1494 1494 1494 1494 1494 1494 1495 1495 1495 1496 1496 1497 1498 1499 1500 1500 1501 1502 1502 1503 1503 1503 1503 1504 1504 1505
1504 1508 1508 1506 1505 1505 1500 1504 1506 1506 1503 1495 1501 1483 1479 1486 1489 1490 1490 1490 1490 1491 1491 1491 1491 1492 1492 1493 1494 1494 1495 1496 1497 1497 1498 1498 1498 1498 1499 1499 1499 1500 1500 1501
1504 1508 1506 1504 1505 1506 1503 1507 1507 1506 1503 1499 1498 1494 1474 1484 1484 1485 1486 1487 1488 1488 1488 1488 1488 1489 1489 1490 1491 1491 1492 1493 1494 1494 1495 1495 1495 1495 1495 1495 1495 1495 1496 1496
1508 1510 1509 1507 1508 1508 1508 1508 1507 1506 1502 1495 1489 1490 1470 1474 1479 1480 1483 1485 1485 1486 1486 1486 1486 1486 1486 1487 1488 1488 1489 1490 1490 1491 1491 1492 1492 1492 1491 1491 1491 1491 1491 1492
1504 1507 1509 1510 1507 1508 1507 1502 1495 1491 1489 1479 1491 1489 1474 1476 1479 1481 1482 1483 1484 1484 1484 1483 1483 1483 1483 1483 1484 1485 1486 1486 1487 1487 1488 1488 1488 1488 1488 1487 1487 1487 1487 1487
1498 1497 1506 1509 1506 1505 1505 1501 1493 1486 1476 1472 1492 1482 1473 1480 1482 1482 1482 1482 1482 1482 1482 1481 1481 1481 1481 1481 1482 1482 1482 1483 1484 1483 1484 1485 1485 1484 1484 1484 1483 1482 1482 1482
1498 1498 1508 1509 1509 1506 1503 1501 1502 1498 1496 1489 1475 1477 1479 1480 1481 1481 1481 1481 1481 1480 1480 1479 1479 1479 1479 1479 1479 1480 1479 1480 1480 1480 1480 1480 1480 1480 1480 1479 1479 1478 1478 1477
1504 1503 1506 1509 1509 1508 1506 1503 1503 1498 1489 1477 1469 1471 1469 1475 1476 1478 1480 1479 1479 1479 1478 1478 1478 1477 1477 1477 1477 1477 1477 1477 1477 1477 1476 1476 1476 1476 1475 1475 1474 1473 1473 1472
1507 1505 1505 1507 1505 1501 1506 1506 1501 1497 1494 1483 1473 1468 1472 1474 1476 1477 1478 1478 1478 1478 1477 1476 1476 1475 1475 1475 1475 1474 1474 1474 1474 1473 1472 1472 1471 1471 1470 1469 1469 1468 1467 1467
1508 1505 1499 1500 1506 1508 1504 1501 1500 1495 1493 1494 1482 1474 1475 1477 1478 1478 1478 1478 1477 1477 1476 1475 1474 1473 1473 1472 1472 1471 1471 1470 1470 1469 1468 1468 1467 1466 1465 1464 1463 1463 1462 1461
1508 1506 1497 1492 1503 1508 1506 1504 1503 1501 1496 1491 1483 1474 1478 1479 1478 1478 1478 1477 1476 1475 1474 1473 1472 1471 1471 1470 1469 1468 1467 1467 1466 1465 1464 1463 1462 1461 1460 1459 1459 1458 1456 1456
1506 1505 1499 1489 1487 1495 1500 1503 1504 1500 1493 1485 1480 1472 1475 1476 1477 1477 1476 1475 1474 1473 1472 1471 1470 1469 1468 1467 1466 1465 1464 1464 1463 1462 1461 1459 1459 1458 1456 1455 1454 1453 1452 1451
1505 1502 1501 1498 1498 1499 1497 1498 1500 1499 1490 1485 1475 1476 1473 1474 1475 1475 1474 1473 1472 1471 1469 1468 1467 1466 1465 1464 1463 1462 1461 1460 1459 1458 1457 1456 1455 1454 1452 1451 1450 1448 1447 1446
1505 1502 1502 1499 1497 1497 1497 1494 1494 1494 1491 1486 1482 1479 1475 1475 1475 1473 1472 1471 1469 1468 1466 1465 1464 1463 1462 1461 1460 1459 1458 1457 1456 1455 1454 1453 1451 1449 1448 1447 1445 1444 1443 1442
1503 1503 1499 1489 1497 1496 1488 1485 1487 1488 1485 1483 1479 1474 1474 1474 1473 1471 1470 1468 1467 1465 1463 1462 1461 1460 1459 1458 1457 1456 1455 1454 1453 1452 1451 1449 1447 1446 1444 1443 1442 1441 1439 1438
1502 1500 1498 1492 1495 1489 1477 1483 1482 1481 1480 1481 1477 1474 1474 1473 1470 1468 1467 1465 1464 1462 1461 1459 1458 1457 1456 1455 1454 1453 1452 1451 1450 1448 1447 1445 1444 1442 1441 1440 1438 1437 1435 1433
1499 1498 1494 1492 1486 1476 1477 1481 1482 1481 1475 1475 1475 1473 1472 1470 1467 1464 1463 1462 1461 1459 1458 1456 1455 1454 1453 1452 1451 1450 1449 1448 1447 1445 1444 1442 1441 1439 1437 1436 1434 1433 1431 1429
1501 1499 1495 1493 1487 1478 1473 1480 1480 1480 1472 1471 1472 1471 1470 1469 1464 1462 1462 1460 1458 1456 1455 1453 1452 1451 1450 1449 1448 1447 1446 1445 1443 1442 1440 1439 1438 1436 1434 1432 1431 1429 1428 1425
1499 1498 1496 1491 1486 1476 1479 1480 1480 1477 1469 1470 1469 1469 1468 1467 1464 1462 1459 1457 1455 1454 1452 1451 1450 1448 1447 1446 1445 1444 1443 1442 1440 1439 1437 1436 1434 1433 1431 1429 1428 1426 1424 1422
1492 1492 1493 1490 1486 1478 1479 1480 1478 1472 1470 1469 1467 1466 1465 1463 1461 1459 1457 1455 1453 1451 1449 1448 1447 1446 1445 1444 1442 1441 1440 1439 1437 1436 1434 1433 1431 1430 1428 1426 1424 1422 1420 1418
1489 1486 1483 1483 1478 1475 1475 1474 1472 1471 1469 1466 1465 1464 1462 1460 1458 1456 1454 1452 1450 1449 1447 1446 1444 1443 1442 1441 1440 1438 1437 1436 1434 1432 1431 1429 1428 1426 1425 1423 1421 1419 1417 1416
1485 1486 1484 1481 1474 1473 1472 1471 1469 1468 1466 1464 1462 1461 1459 1457 1455 1453 1451 1449 1447 1446 1444 1443 1441 1440 1439 1438 1437 1436 1434 1433 1431 1429 1428 1426 1425 1423 1422 1420 1419 1417 1415 1413
1479 1482 1481 1477 1472 1470 1467 1466 1465 1463 1462 1460 1459 1457 1455 1454 1452 1450 1448 1446 1444 1443 1441 1440 1439 1437 1436 1435 1434 1432 1431 1430 1428 1426 1425 1423 1422 1420 1418 1417 1416 1414 1412 1411
1475 1476 1474 1468 1466 1467 1463 1462 1462 1460 1458 1456 1455 1453 1452 1450 1448 1447 1445 1443 1442 1440 1438 1437 1436 1435 1433 1432 1431 1429 1428 1427 1425 1423 1421 1420 1418 1417 1415 1413 1412 1410 1409 1407